[[{"header":{"parameterUnit":"m.s-1","parameterCategory":1,"la1":30.2991,"la2":30.254,"lo1":-89.0895,"lo2":-89.0444,"dy":0.0017,"dx":0.0017,"nx":28,"ny":28,"refTime":"2024-05-03T03:00:00:Z","depth":0,"parameterNumber":2,"parameterNumberName":"U-component_of_WINDS"},"data":[0,0,0,0,0,0,0,0,0,0,0,0,0,0,0,0,0,0,0,0,0,0,0,0,0,0,0,0,0,0,0,0,0,0,0,0,0,0,0,0,0,0,0,0,0,0,0,0,0,0,0,0,0,0,0,0,0,0,-1.8448,-1.8449,0,-1.8526,-1.8527,-1.8528,-1.8536,-1.8535,-1.8534,-1.8533,-1.8612,-1.8615,-1.8617,0,0,0,0,0,0,0,0,0,0,0,0,0,-1.8305,-1.8308,-1.8448,-1.8449,-1.845,-1.8526,-1.8527,-1.8528,-1.8536,-1.8535,-1.8534,-1.8533,-1.8611,-1.8614,-1.8618,0,0,0,0,0,0,0,0,0,0,0,0,0,-1.8374,-1.8309,-1.8448,-1.8463,-1.8465,-1.8526,-1.8527,-1.8529,-1.8536,-1.8535,-1.8534,-1.8532,-1.861,-1.8614,-1.8618,-1.8669,0,0,-1.8631,-1.8633,0,0,0,0,0,0,0,0,-1.837,-1.8379,-1.846,-1.8462,-1.8465,-1.852,-1.8506,-1.8576,-1.8536,-1.8509,-1.8533,-1.8532,-1.8582,-1.8589,-1.8606,-1.8672,-1.8676,-1.8632,-1.8634,-1.8636,-1.8637,0,0,0,0,0,0,0,-1.8365,-1.8376,-1.8479,-1.8461,-1.8464,-1.8466,-1.8474,-1.8519,-1.8551,-1.8511,-1.8512,-1.8521,-1.8583,-1.8602,-1.8608,-1.8677,-1.8631,-1.8635,-1.8638,-1.8639,-1.879,-1.8791,0,0,0,0,0,0,-1.8358,-1.8372,-1.8477,-1.8481,-1.8413,-1.8469,-1.8479,-1.8503,-1.8551,-1.8557,-1.8522,-1.8521,-1.8595,-1.8603,-1.8611,-1.8673,-1.8636,-1.864,-1.8642,-1.8788,-1.879,-1.8792,0,0,0,0,0,0,-1.8355,-1.8367,-1.8473,-1.8427,-1.8441,-1.8473,-1.8501,-1.8506,-1.8524,-1.8559,-1.8565,-1.8535,-1.8594,-1.8605,-1.8654,-1.8676,-1.8642,-1.8646,-1.8787,-1.8789,-1.8791,-1.8798,0,0,0,0,0,0,-1.835,-1.8366,-1.8385,-1.8427,-1.8443,-1.8516,-1.8502,-1.8508,-1.8532,-1.8531,-1.8573,-1.8579,-1.8594,-1.8648,-1.8659,-1.8681,-1.8649,-1.8785,-1.8788,-1.879,-1.8796,-1.88,-1.8803,0,0,0,0,0,-1.8345,-1.8384,-1.8386,-1.8399,-1.8468,-1.8517,-1.8526,-1.8544,-1.8533,-1.8553,-1.8576,-1.8577,-1.8672,-1.8653,-1.8665,-1.8689,-1.8784,-1.8787,-1.879,-1.8794,-1.8799,-1.8803,0,0,0,0,0,0,-1.8343,-1.8389,-1.8393,-1.8446,-1.8478,-1.8518,-1.8544,-1.8549,-1.8583,-1.8581,-1.8602,-1.8611,-1.866,-1.868,-1.8658,-1.8741,-1.8727,-1.8733,-1.8726,-1.8731,-1.8735,-1.8728,-1.8653,0,0,0,0,0,-1.8348,-1.8385,-1.8424,-1.8467,-1.8483,-1.8511,-1.8533,-1.8544,-1.8577,-1.859,-1.8617,-1.8649,-1.8686,-1.871,-1.8746,-1.88,-1.8809,-1.8822,-1.8826,-1.8829,-1.8833,-1.8863,-1.8869,-1.8802,-1.8802,-1.8802,0,0,-1.836,-1.839,-1.8412,-1.8467,-1.8493,-1.853,-1.8522,-1.8561,-1.8588,-1.8596,-1.8645,-1.8666,-1.8703,-1.8755,-1.8779,-1.8773,-1.8854,-1.8833,-1.8835,-1.8838,-1.8867,-1.8873,-1.8879,-1.8804,-1.8804,-1.8804,0,0,-1.84,-1.8427,-1.8466,-1.8492,-1.8532,-1.8551,-1.856,-1.8601,-1.8615,-1.8665,-1.8671,-1.8705,-1.8768,-1.8794,-1.8816,-1.8868,-1.8871,-1.888,-1.8899,-1.8928,-1.8933,-1.8938,-1.8956,-1.8962,-1.8884,-1.8884,-1.8884,0,-1.8409,-1.8465,-1.8485,-1.8525,-1.8549,-1.8559,-1.8598,-1.8623,-1.8672,-1.8688,-1.8681,-1.8762,-1.8788,-1.8846,-1.8859,-1.8876,-1.8887,-1.8874,-1.8931,-1.8936,-1.8941,-1.8958,-1.8965,-1.8885,-1.8885,-1.8885,-1.8885,0,-1.8475,-1.8514,-1.854,-1.8588,-1.8616,-1.8655,-1.8681,-1.8706,-1.8715,-1.8735,-1.8785,-1.8817,-1.886,-1.8875,-1.8884,-1.8935,-1.893,-1.8927,-1.8912,-1.8947,-1.8964,-1.8971,-1.8886,-1.8886,-1.8886,-1.8885,0,0,-1.8513,-1.8573,-1.8582,-1.8604,-1.865,-1.868,-1.872,-1.8763,-1.8784,-1.8818,-1.8852,-1.8906,-1.8904,-1.8929,-1.8941,-1.8967,-1.9006,-1.8961,-1.8962,-1.8967,-1.9063,-1.9064,-1.9071,-1.9009,-1.901,-1.9011,-1.906,0,-1.8557,-1.8629,-1.8648,-1.8709,-1.8745,-1.8756,-1.8791,-1.8823,-1.8843,-1.8876,-1.8898,-1.8936,-1.8931,-1.8946,-1.8972,-1.8995,-1.9025,-1.8992,-1.9039,-1.9041,-1.9028,-1.908,-1.9081,-1.9125,-1.9066,-1.9068,-1.9068,0,-1.8618,-1.8654,-1.8718,-1.8759,-1.8775,-1.8806,-1.8847,-1.888,-1.8916,-1.8929,-1.8957,-1.8968,-1.901,-1.8996,-1.9054,-1.9032,-1.9052,-1.9067,-1.9069,-1.9073,-1.9055,-1.9084,-1.914,-1.9146,-1.9079,-1.9078,-1.9077,0,-1.8638,-1.8703,-1.8749,-1.8768,-1.8818,-1.884,-1.8861,-1.8897,-1.8921,-1.8958,-1.8974,-1.9014,-1.9036,-1.9067,-1.9089,-1.9076,-1.9145,-1.9132,-1.9156,-1.9156,-1.9169,-1.9167,-1.9227,-1.9185,-1.9185,-1.9185,-1.9185,0,-1.8684,-1.8722,-1.8759,-1.8788,-1.8831,-1.8854,-1.8897,-1.8919,-1.8951,-1.8984,-1.8997,-1.9028,-1.9055,-1.909,-1.9107,-1.9152,-1.9163,-1.9174,-1.9177,-1.9172,-1.917,-1.9184,-1.9181,-1.9186,-1.9186,-1.9186,-1.9185,0,-1.8713,-1.8739,-1.879,-1.8834,-1.8846,-1.8876,-1.8914,-1.8942,-1.8963,-1.9005,-1.9016,-1.9049,-1.9091,-1.9116,-1.9168,-1.918,-1.923,-1.9233,-1.9218,-1.9219,-1.9241,-1.9238,-1.9311,-1.9322,-1.9273,-1.9274,-1.9274,0,-1.8739,-1.8769,-1.8817,-1.884,-1.8862,-1.89,-1.8925,-1.895,-1.8976,-1.9021,-1.9043,-1.9086,-1.9121,-1.9187,-1.9216,-1.9256,-1.926,-1.9283,-1.9266,-1.9259,-1.9259,-1.9256,-1.9259,-1.9285,-1.9285,-1.9285,-1.9286,0,-1.8784,-1.8796,-1.8832,-1.8874,-1.8904,-1.8938,-1.8971,-1.899,-1.902,-1.9049,-1.9092,-1.9119,-1.9173,-1.9215,-1.9258,-1.9281,-1.9288,-1.9291,-1.9299,-1.9292,-1.9281,-1.9286,-1.9224,-1.9289,-1.9288,-1.9288,-1.9288,-1.9288,-1.8812,-1.8839,-1.8877,-1.8917,-1.8945,-1.8977,-1.9006,-1.9031,-1.9067,-1.9113,-1.9126,-1.9171,-1.9208,-1.9267,-1.9291,-1.9326,-1.9323,-1.9334,-1.9336,-1.9338,-1.9338,-1.9277,-1.9334,-1.9334,-1.9334,-1.9334,-1.9334,0,-1.8856,-1.8882,-1.8919,-1.8965,-1.8997,-1.9003,-1.9041,-1.9067,-1.9106,-1.9141,-1.9175,-1.9225,-1.9266,-1.9299,-1.9341,-1.9364,-1.9368,-1.9374,-1.9371,-1.9376,-1.9339,-1.9328,-1.9369,-1.9369,-1.9369,-1.9369,-1.9369,-1.9369,-1.8883,-1.8929,-1.8946,-1.9007,-1.9032,-1.9076,-1.9097,-1.9126,-1.9154,-1.9209,-1.9243,-1.9265,-1.9298,-1.9344,-1.9382,-1.9391,-1.9405,-1.941,-1.9419,-1.9383,-1.9379,-1.9375,-1.9365,-1.9413,-1.9413,-1.9453,-1.9453,-1.9454]},{"header":{"parameterUnit":"m.s-1","parameterCategory":1,"la1":30.2991,"la2":30.254,"lo1":-89.0895,"lo2":-89.0444,"dy":0.0017,"dx":0.0017,"nx":28,"ny":28,"refTime":"2024-05-03T03:00:00:Z","depth":0,"parameterNumber":3,"parameterNumberName":"V-component_of_WINDS"},"data":[0,0,0,0,0,0,0,0,0,0,0,0,0,0,0,0,0,0,0,0,0,0,0,0,0,0,0,0,0,0,0,0,0,0,0,0,0,0,0,0,0,0,0,0,0,0,0,0,0,0,0,0,0,0,0,0,0,0,3.098,3.098,0,3.0965,3.0965,3.0964,3.0984,3.0984,3.0985,3.0986,3.0965,3.0964,3.0963,0,0,0,0,0,0,0,0,0,0,0,0,0,3.1022,3.1021,3.098,3.098,3.098,3.0965,3.0965,3.0964,3.0984,3.0984,3.0985,3.0986,3.0965,3.0964,3.0962,0,0,0,0,0,0,0,0,0,0,0,0,0,3.1005,3.1021,3.098,3.0987,3.0988,3.0965,3.0965,3.0964,3.0983,3.0984,3.0986,3.0987,3.0966,3.0964,3.0962,3.0929,0,0,3.0957,3.0956,0,0,0,0,0,0,0,0,3.1006,3.1003,3.0987,3.0987,3.0987,3.0977,3.0972,3.0952,3.0983,3.0985,3.0986,3.0987,3.0968,3.0966,3.0961,3.0928,3.0928,3.0956,3.0955,3.0955,3.0954,0,0,0,0,0,0,0,3.1007,3.1004,3.0974,3.0986,3.0987,3.0991,3.0989,3.0968,3.097,3.0985,3.0986,3.0984,3.0968,3.0962,3.096,3.0927,3.0957,3.0955,3.0954,3.0953,3.087,3.0869,0,0,0,0,0,0,3.1008,3.1005,3.0974,3.0973,3.1,3.0989,3.0988,3.0979,3.0971,3.097,3.0984,3.0985,3.0965,3.0962,3.096,3.0922,3.0955,3.0953,3.0952,3.0871,3.0869,3.0868,0,0,0,0,0,0,3.1009,3.1005,3.0975,3.099,3.0986,3.0987,3.0978,3.0979,3.0973,3.097,3.097,3.0977,3.0966,3.0962,3.0938,3.0921,3.0952,3.095,3.0872,3.087,3.0869,3.0845,0,0,0,0,0,0,3.101,3.1005,3.0993,3.0989,3.0985,3.0954,3.0977,3.0977,3.097,3.0972,3.0964,3.0963,3.0966,3.094,3.0936,3.0919,3.0949,3.0874,3.0871,3.0869,3.0847,3.0843,3.0839,0,0,0,0,0,3.1011,3.0985,3.0992,3.0989,3.0971,3.0953,3.0951,3.0956,3.0969,3.0956,3.0955,3.0964,3.0924,3.0938,3.0933,3.0915,3.0875,3.0872,3.087,3.0849,3.0844,3.0839,0,0,0,0,0,0,3.0985,3.0985,3.0993,3.0965,3.0959,3.0956,3.0941,3.0949,3.0938,3.0941,3.0946,3.0944,3.0918,3.0914,3.0929,3.0884,3.0901,3.0898,3.0888,3.0882,3.0878,3.0879,3.0947,0,0,0,0,0,3.0976,3.0963,3.0964,3.0939,3.0936,3.0939,3.0932,3.0937,3.093,3.0927,3.0924,3.0915,3.0902,3.0892,3.0879,3.0848,3.0846,3.0833,3.0829,3.0826,3.0822,3.0807,3.0802,3.086,3.086,3.086,0,0,3.0957,3.0956,3.0947,3.0934,3.093,3.0916,3.0937,3.092,3.0909,3.0924,3.0901,3.0899,3.089,3.0863,3.0851,3.0859,3.0807,3.0823,3.082,3.0818,3.0804,3.0799,3.0794,3.0858,3.0859,3.0859,0,0,3.0916,3.0913,3.0894,3.089,3.0885,3.0888,3.0883,3.088,3.0879,3.0858,3.0869,3.0856,3.0831,3.0825,3.0819,3.0779,3.0787,3.0774,3.0752,3.0737,3.0733,3.0728,3.0715,3.071,3.0771,3.0771,3.0771,0,3.0892,3.0873,3.0882,3.0866,3.086,3.0875,3.0855,3.0851,3.0841,3.0836,3.0846,3.0818,3.0813,3.0785,3.0776,3.077,3.0765,3.0774,3.0733,3.0729,3.0725,3.0712,3.0707,3.0769,3.077,3.077,3.077,0,3.0845,3.0831,3.0816,3.0809,3.0801,3.0783,3.0789,3.078,3.0787,3.0788,3.0766,3.0762,3.0749,3.0743,3.0747,3.0716,3.0722,3.0732,3.0749,3.0718,3.0706,3.0701,3.0767,3.0768,3.0768,3.0769,0,0,3.0784,3.0785,3.0779,3.0777,3.0774,3.0763,3.0746,3.0735,3.0728,3.0721,3.0707,3.0688,3.0698,3.0691,3.0696,3.0683,3.0653,3.0695,3.0695,3.0688,3.0619,3.0611,3.0605,3.0659,3.0658,3.0657,3.062,0,3.0743,3.0715,3.0725,3.0696,3.0684,3.07,3.0685,3.0681,3.0683,3.0672,3.0674,3.066,3.0675,3.0671,3.0659,3.0659,3.0639,3.0662,3.0645,3.0644,3.0646,3.0599,3.059,3.0555,3.0615,3.0614,3.0614,0,3.0691,3.0685,3.0656,3.0658,3.0653,3.064,3.0632,3.0622,3.0619,3.0621,3.0615,3.0623,3.0606,3.0624,3.0601,3.0617,3.061,3.061,3.0608,3.0606,3.0626,3.0595,3.0543,3.0538,3.0606,3.0607,3.0607,0,3.065,3.0635,3.0616,3.0614,3.0615,3.0605,3.0605,3.0603,3.0597,3.059,3.0586,3.0577,3.0571,3.0563,3.0569,3.0582,3.0545,3.0563,3.0546,3.0546,3.0536,3.0537,3.0483,3.0533,3.0533,3.0533,3.0533,0,3.0603,3.0585,3.0599,3.0587,3.0567,3.0578,3.0558,3.0559,3.0558,3.0546,3.0559,3.0548,3.0556,3.0545,3.0549,3.053,3.0527,3.0528,3.0529,3.0527,3.0527,3.0522,3.0524,3.0532,3.0532,3.0532,3.0533,0,3.0553,3.0562,3.0543,3.0547,3.0547,3.0532,3.0535,3.0524,3.0528,3.0514,3.0511,3.0516,3.0505,3.051,3.0497,3.05,3.0475,3.048,3.0477,3.0478,3.0461,3.0462,3.0401,3.0394,3.0449,3.0448,3.0448,0,3.0523,3.051,3.0513,3.0508,3.0507,3.0498,3.0493,3.0503,3.0497,3.0494,3.0484,3.0474,3.0466,3.0447,3.0449,3.044,3.0444,3.0424,3.0442,3.0441,3.0444,3.0445,3.0444,3.0419,3.0419,3.0418,3.0418,0,3.0468,3.0474,3.0467,3.0462,3.0456,3.0452,3.0449,3.0444,3.0455,3.0447,3.0437,3.0432,3.0421,3.0411,3.0403,3.0402,3.0411,3.0412,3.0408,3.0405,3.0404,3.0405,3.0467,3.0413,3.0414,3.0414,3.0414,3.0414,3.0427,3.0417,3.0419,3.0411,3.0411,3.0408,3.0399,3.0403,3.0396,3.0389,3.0395,3.0383,3.0382,3.0373,3.0371,3.0361,3.0369,3.0362,3.0361,3.0359,3.0357,3.0406,3.036,3.036,3.036,3.036,3.036,0,3.0373,3.0376,3.0369,3.0366,3.036,3.0373,3.0371,3.0365,3.0355,3.0354,3.0347,3.0336,3.0327,3.033,3.0322,3.0314,3.0318,3.0312,3.0312,3.0312,3.035,3.0355,3.0308,3.0308,3.0308,3.0308,3.0308,3.0308,3.0344,3.0328,3.0335,3.0319,3.0321,3.0311,3.0309,3.0307,3.0307,3.0295,3.0288,3.0291,3.0292,3.0285,3.0277,3.0278,3.0275,3.0266,3.0269,3.0304,3.0309,3.0314,3.0318,3.0265,3.0265,3.0232,3.0231,3.0231]}]]